EW1898 Weather Reports


time (UTC)temp
C
wind
direction
speed
KPH
gust
KPH
rain 1hr
cm
rain 24hr
cm
rain mn
cm
humidity
%
barometer
mb
20260904004548 20 355 0.0 0.0 0.00 0.20 0.20 96 1011.7
20260904003050 20 355 0.0 1.6 0.00 0.20 0.20 96 1011.4
20260904001548 20 355 0.0 1.6 0.00 0.20 0.20 96 1011.2
20260904000130 20 355 0.0 1.6 0.00 0.20 0.20 95 1011.1
20260903234550 20 355 0.0 0.0 0.00 0.20 0.20 94 1011.1
20260903233046 21 355 0.0 0.0 0.00 0.20 0.20 94 1011.0
20260903231548 21 355 0.0 1.6 0.00 0.20 0.20 92 1011.1
20260903230047 22 355 0.0 0.0 0.00 0.20 0.20 90 1011.4
20260903224550 22 355 0.0 1.6 0.00 0.20 0.20 89 1011.0
20260903223040 22 340 0.0 0.0 0.00 0.20 0.20 88 1011.2
20260903221539 22 340 0.0 0.0 0.00 0.20 0.20 87 1011.7
20260903220038 23 298 0.0 0.0 0.00 0.20 0.20 87 1011.5
20260903214547 23 298 0.0 0.0 0.00 0.20 0.20 86 1011.5
20260903213039 23 298 0.0 0.0 0.00 0.20 0.20 87 1011.4
20260903211542 22 298 0.0 0.0 0.00 0.20 0.20 88 1011.6
20260903210042 23 298 0.0 3.2 0.00 0.20 0.20 85 1011.5
20260903204532 23 134 0.0 1.6 0.00 0.20 0.20 86 1011.5
20260903203037 22 134 0.0 1.6 0.00 0.20 0.20 87 1011.6
20260903201525 22 101 0.0 4.8 0.00 0.20 0.20 85 1011.6
20260903200026 22 306 0.0 1.6 0.00 0.20 0.20 87 1011.8
20260903194516 22 94 0.0 3.2 0.00 0.20 0.20 87 1012.0
20260903193013 21 99 0.0 3.2 0.00 0.20 0.20 88 1012.2
20260903191519 21 99 0.0 1.6 0.00 0.20 0.20 89 1012.3
20260903190007 21 99 0.0 3.2 0.00 0.20 0.20 89 1012.3
20260903184504 21 144 0.0 3.2 0.00 0.20 0.20 89 1012.6
20260903183006 21 299 0.0 3.2 0.00 0.20 0.20 90 1012.7
20260903181601 20 312 0.0 3.2 0.00 0.20 0.20 91 1012.8
20260903180059 20 240 0.0 3.2 0.00 0.20 0.20 91 1013.0
20260903174556 20 292 0.0 1.6 0.00 0.20 0.20 91 1013.2
20260903173056 20 296 0.0 3.2 0.00 0.20 0.20 92 1013.4
20260903171556 20 297 0.0 3.2 0.00 0.20 0.20 92 1013.2
20260903170059 20 291 0.0 3.2 0.00 0.20 0.20 93 1013.0
20260903164554 19 291 0.0 3.2 0.00 0.20 0.20 93 1013.1
20260903163102 19 274 0.0 3.2 0.00 0.20 0.20 94 1013.2
20260903161548 19 175 0.0 4.8 0.00 0.20 0.20 95 1013.2
20260903160043 18 293 0.0 3.2 0.00 0.20 0.20 95 1013.3
20260903154540 18 293 0.0 4.8 0.00 0.20 0.20 96 1013.4
20260903153037 18 293 0.0 3.2 0.00 0.20 0.20 97 1013.7
20260903151536 18 293 0.0 1.6 0.00 0.20 0.20 97 1013.7
20260903150047 17 293 0.0 1.6 0.00 0.20 0.20 97 1013.9
20260903144534 17 293 0.0 1.6 0.00 0.20 0.20 97 1014.2
20260903143036 17 293 0.0 1.6 0.00 0.20 0.20 98 1013.9
20260903141535 17 293 0.0 4.8 0.00 0.20 0.20 98 1014.0
20260903140029 17 341 0.0 0.0 0.00 0.20 0.20 98 1014.5
20260903134528 16 341 0.0 0.0 0.00 0.20 0.20 98 1014.6
20260903133028 16 342 0.0 0.0 0.00 0.20 0.20 98 1014.5
20260903131526 16 341 0.0 0.0 0.00 0.20 0.20 98 1014.3
20260903130024 16 342 0.0 0.0 0.00 0.20 0.20 98 1014.4
20260903124525 16 342 0.0 0.0 0.00 0.20 0.20 98 1014.5
20260903123028 16 341 0.0 0.0 0.00 0.20 0.20 98 1014.8
20260903121520 16 341 0.0 0.0 0.00 0.20 0.20 98 1014.9
20260903120018 16 342 0.0 1.6 0.00 0.20 0.20 98 1015.1
20260903114520 16 340 0.0 1.6 0.00 0.20 0.20 98 1015.2
20260903113017 16 340 0.0 0.0 0.00 0.20 0.20 98 1015.3
20260903111516 16 340 0.0 0.0 0.00 0.20 0.20 98 1015.3
20260903110016 15 340 0.0 1.6 0.00 0.20 0.20 98 1015.3
20260903104516 15 340 0.0 1.6 0.03 0.20 0.20 97 1015.3
20260903103015 15 340 0.0 1.6 0.05 0.20 0.20 97 1015.3
20260903101514 15 341 0.0 0.0 0.08 0.20 0.20 97 1015.2
20260903100022 15 341 0.0 1.6 0.13 0.20 0.20 97 1015.1
20260903094511 15 341 0.0 1.6 0.10 0.18 0.18 96 1015.2
20260903093009 15 341 0.0 0.0 0.08 0.15 0.15 96 1015.4
20260903091508 16 342 0.0 0.0 0.05 0.13 0.13 96 1015.6
20260903090009 16 342 0.0 0.0 0.08 0.08 0.08 96 1015.7
20260903084505 16 342 0.0 1.6 0.08 0.08 0.08 95 1015.7
20260903083003 16 296 0.0 1.6 0.08 0.08 0.08 93 1015.7
20260903081600 17 296 0.0 0.0 0.08 0.08 0.08 90 1015.9
20260903080055 17 296 0.0 0.0 0.00 0.00 0.00 86 1015.9
20260903074555 17 85 0.0 3.2 0.00 0.00 0.00 85 1015.6
20260903073052 17 96 0.0 3.2 0.00 0.00 0.00 85 1016.1
20260903071616 17 97 0.0 0.0 0.00 0.00 0.00 86 1016.0
20260903070100 17 87 0.0 1.6 0.00 0.00 0.00 85 1016.2
20260903064546 17 112 0.0 1.6 0.00 0.00 0.00 86 1016.5
20260903063146 17 112 0.0 1.6 0.00 0.00 0.00 86 1016.9
20260903061543 17 18 0.0 1.6 0.00 0.00 0.00 86 1017.4
20260903060040 17 78 0.0 1.6 0.00 0.00 0.00 86 1017.8
20260903054543 17 78 0.0 1.6 0.00 0.00 0.00 87 1018.1
20260903053037 17 66 0.0 1.6 0.00 0.00 0.00 87 1018.2
20260903051538 17 67 0.0 1.6 0.00 0.00 0.00 87 1017.9
20260903050041 17 69 0.0 0.0 0.00 0.00 0.00 89 1017.8
20260903044532 17 87 0.0 0.0 0.00 0.00 0.00 90 1018.4
20260903043031 17 87 0.0 0.0 0.00 0.00 0.00 91 1018.6
20260903041530 17 87 0.0 0.0 0.00 0.00 0.00 91 1018.4
20260903040027 17 87 0.0 0.0 0.00 0.00 0.00 91 1018.4
20260903034528 17 87 0.0 0.0 0.00 0.00 0.00 90 1018.4
20260903033024 17 87 0.0 0.0 0.00 0.00 0.00 90 1018.7
20260903031522 17 87 0.0 0.0 0.00 0.00 0.00 90 1019.0
20260903030021 17 87 0.0 0.0 0.00 0.00 0.00 90 1019.1
20260903024521 17 87 0.0 0.0 0.00 0.00 0.00 90 1019.3
20260903023033 17 87 0.0 0.0 0.00 0.00 0.00 89 1019.4
20260903021520 17 87 0.0 0.0 0.00 0.00 0.00 89 1019.2
20260903020019 17 87 0.0 0.0 0.00 0.00 0.00 88 1019.4
20260903014522 17 87 0.0 0.0 0.00 0.00 0.00 87 1019.7
20260903013019 17 86 0.0 3.2 0.00 0.00 0.00 88 1019.5
20260903011521 -17 0.0 0.0 0.00 0.00 0.00 1019.1
20260903010010 18 120 0.0 3.2 0.00 0.00 0.00 87 1019.3